Regional Weather Roundup
Issued by NWS

Home | Current Version | Previous Version | Graphics & Text | Print | Product List | Glossary On
Versions: 1 2 3 4 5 6 7 8 9 10 11 12 13 14 15 16 17 18 19 20 21 22 23 24 25 26 27 28 29 30 31 32 33 34 35 36 37 38 39 40 41 42 43 44 45 46 47 48 49 50
000
ASUS43 KFSD 020502
RWRSD

WEATHER ROUNDUP FOR SOUTH DAKOTA
NATIONAL WEATHER SERVICE SIOUX FALLS SD
1100 PM CST THU DEC 01 2016

NOTE: "FAIR" INDICATES FEW OR NO CLOUDS BELOW 12,000 FEET WITH NO
SIGNIFICANT WEATHER AND/OR OBSTRUCTIONS TO VISIBILITY.


SDZ001>005-009-010-012>017-020600-
NORTHWEST AND NORTH CENTRAL SOUTH DAKOTA

CITY           SKY/WX    TMP DP  RH WIND       PRES   REMARKS
BUFFALO          N/A     23  21  92 CALM      29.95R
FAITH            N/A     26  26 100 CALM      30.05R
MOBRIDGE       CLOUDY    29  25  85 CALM      30.05R
$$

SDZ012>016-024>037-041>051-057-063-072>074-020600-
SOUTHWEST AND SOUTH CENTRAL SOUTH DAKOTA

CITY           SKY/WX    TMP DP  RH WIND       PRES   REMARKS
RAPID CTY ARPT CLOUDY    25  20  81 CALM      30.03R
PIERRE         CLOUDY    30  25  81 NW5       30.07R WCI  25
CUSTER         CLOUDY    21  14  74 W5        29.95R WCI  15
ELLSWORTH AFB  CLOUDY    25  20  83 CALM      30.01R
PHILIP         CLOUDY    24  22  91 W5        30.07R WCI  18
PINE RIDGE     CLOUDY    25  22  88 CALM      30.03R
SPEARFISH      CLOUDY    28  21  74 W5        30.01R WCI  23
WINNER         CLOUDY    27  24  89 W5        30.07R WCI  22
$$

SDZ004>011-016>023-039-040-020600-
NORTHEAST SOUTH DAKOTA

CITY           SKY/WX    TMP DP  RH WIND       PRES   REMARKS
ABERDEEN       CLOUDY    30  24  78 N8        30.09R WCI  22
WATERTOWN      CLOUDY    27  24  89 N9        30.04R WCI  18
SISSETON         N/A     30  25  81 N9        30.07R WCI  22
$$

SDZ017-020-022-023-036>040-048>070-020600-
SOUTHEAST SOUTH DAKOTA

CITY           SKY/WX    TMP DP  RH WIND       PRES   REMARKS
SIOUX FALLS    CLOUDY    33  32  96 NW5       30.05R WCI  29
HURON          CLOUDY    31  30  96 N6        30.08R WCI  25
CHAMBERLAIN    LGT SNOW  31  31 100 W6        30.08R WCI  25
MITCHELL       CLOUDY    33  30  88 W5        30.08R WCI  29
YANKTON        CLOUDY    32  28  86 W6        30.08R WCI  26
$$

ABBREVIATIONS USED IN REMARKS
   TC - TEMPERATURE IN CELSIUS
  WCI - WIND CHILL INDEX
   HX - HEAT INDEX
  VSB - VISIBILITY





USA.gov is the U.S. government's official web portal to all federal, state and local government web resources and services.